Location: Zlin
(49.2330°N, 17.6670°E)
Time: 07:24:15
(UTC+01:00)

ISS - Visible Passes

Search period start: 26 January 2015 00:00
Search period end: 05 February 2015 00:00
Orbit: 402 x 410 km, 51.6° (Epoch: 25 January)

Date Brightness Start Highest point End Pass type
(mag) Time Alt. Az. Time Alt. Az. Time Alt. Az.
26 Jan -0.6 04:44:33 16° SE 04:44:33 16° SE 04:45:19 10° SE visible
26 Jan -0.9 06:17:15 10° WSW 06:18:03 11° SW 06:18:46 10° SSW visible
27 Jan -0.9 05:27:50 14° S 05:27:50 14° S 05:28:44 10° S visible
